Date String (YYYY-MM-DD hh:mm:ss) UTC,Instrument flags,absolute air pressure of the measurement (hPa),sample flow rate (lpm),inlet stack bypass flow (lpm),air temperature of the measurement (°C),ambient temperature measured by the external sensor (°C),aerosol sample conditioner tube jacket temperature (°C),OPC LED temperature (°C),internal box temperature (°C),relative humidity of the measurement (%),span deviation,mass concentration of particles derived from Lorenz-Mie calculation of OPC scattering (μg/m³),mass concentration of particles derived from Lorenz-Mie calculation of OPC scattering (μg/m³),mass concentration of particles derived from Lorenz-Mie calculation of OPC scattering (μg/m³)
DateTimeUTC,F1_M11,P_M11,Q1_M11,Q2_M11,T1_M11,T2_M11,T3_M11,T4_M11,T5_M11,U1_M11,ZSPAN_M11,X2_M11,X0_M11,X1_M11
2023-12-08 04:00:00,SystemResetWarning,0819.2,5.00,000.00,024.6,023.6,000.0,033.0,026.0,11.0,0000.0,0001.17,0002.93,0000.94
2023-12-08 04:01:00,SystemResetWarning,0819.0,5.00,000.00,024.6,023.6,000.0,033.0,025.9,11.0,0000.0,0001.16,0001.81,0000.94
2023-12-08 04:02:00,SystemResetWarning,0818.9,5.01,000.00,024.6,023.6,000.0,033.0,025.9,11.0,0000.0,0001.14,0001.81,0000.93
2023-12-08 04:03:00,SystemResetWarning,0818.7,5.01,000.00,024.6,023.6,000.0,032.9,025.9,11.1,0000.0,0001.15,0001.84,0000.92
2023-12-08 04:04:00,SystemResetWarning,0818.8,5.00,000.00,024.6,023.6,000.0,032.9,026.0,11.0,0000.0,0001.19,0002.58,0000.92
2023-12-08 04:05:00,SystemResetWarning,0818.8,4.99,000.00,024.6,023.6,000.0,032.9,025.9,11.0,0000.0,0001.23,0003.09,0000.92
2023-12-08 04:06:00,SystemResetWarning,0818.8,4.99,000.00,024.6,023.6,000.0,032.9,026.0,11.0,0000.0,0001.25,0003.13,0000.92
2023-12-08 04:07:00,SystemResetWarning,0818.9,4.99,000.00,024.6,023.6,000.0,032.9,026.0,11.0,0000.0,0001.27,0003.16,0000.93
2023-12-08 04:08:00,SystemResetWarning,0819.1,5.00,000.00,024.6,023.6,000.0,032.9,026.0,11.0,0000.0,0001.26,0003.19,0000.92
2023-12-08 04:09:00,SystemResetWarning,0819.1,5.00,000.00,024.6,023.6,000.0,032.9,026.0,11.0,0000.0,0001.29,0003.26,0000.93
2023-12-08 04:10:00,SystemResetWarning,0819.1,5.01,000.00,024.6,023.6,000.0,032.9,026.0,11.0,0000.0,0001.29,0003.32,0000.93
2023-12-08 04:11:00,SystemResetWarning,0818.9,5.01,000.00,024.6,023.6,000.0,032.9,026.0,11.0,0000.0,0001.30,0003.40,0000.93
2023-12-08 04:12:00,SystemResetWarning,0819.1,5.00,000.00,024.6,023.6,000.0,032.9,026.0,11.1,0000.0,0001.33,0003.46,0000.93
2023-12-08 04:13:00,SystemResetWarning,0819.1,4.99,000.00,024.6,023.6,000.0,032.9,026.0,11.0,0000.0,0001.32,0003.40,0000.94
2023-12-08 04:14:00,SystemResetWarning,0819.0,4.99,000.00,024.6,023.6,000.0,032.9,026.0,11.0,0000.0,0001.32,0003.43,0000.93
2023-12-08 04:15:00,SystemResetWarning,0819.0,5.00,000.00,024.6,023.6,000.0,032.9,025.9,11.0,0000.0,0001.29,0002.80,0000.94
2023-12-08 04:16:00,SystemResetWarning,0819.0,5.00,000.00,024.6,023.6,000.0,032.9,025.9,11.0,0000.0,0001.24,0002.22,0000.94
2023-12-08 04:17:00,SystemResetWarning,0819.1,5.00,000.00,024.6,023.6,000.0,032.9,025.9,11.1,0000.0,0001.23,0002.20,0000.94
2023-12-08 04:18:00,SystemResetWarning,0819.0,5.00,000.00,024.6,023.6,000.0,032.9,025.9,11.0,0000.0,0001.22,0002.14,0000.94
2023-12-08 04:19:00,SystemResetWarning,0819.1,5.00,000.00,024.5,023.6,000.0,032.9,025.9,11.0,0000.0,0001.23,0002.09,0000.94
2023-12-08 04:20:00,SystemResetWarning,0819.0,5.00,000.00,024.5,023.6,000.0,032.9,025.9,11.0,0000.0,0001.22,0002.07,0000.93
2023-12-08 04:21:00,SystemResetWarning,0819.2,5.00,000.00,024.5,023.6,000.0,032.9,025.9,11.0,0000.0,0001.23,0002.05,0000.92
2023-12-08 04:22:00,SystemResetWarning,0819.2,5.00,000.00,024.5,023.6,000.0,032.9,025.9,11.0,0000.0,0001.22,0001.97,0000.92
2023-12-08 04:23:00,SystemResetWarning,0819.2,5.00,000.00,024.5,023.6,000.0,032.9,025.9,10.9,0000.0,0001.19,0001.88,0000.92
2023-12-08 04:24:00,SystemResetWarning,0819.0,5.00,000.00,024.5,023.6,000.0,032.9,025.9,10.9,0000.0,0001.20,0001.94,0000.92
2023-12-08 04:25:00,SystemResetWarning,0819.0,4.99,000.00,024.5,023.6,000.0,032.9,025.9,10.9,0000.0,0001.21,0002.02,0000.92
2023-12-08 04:26:00,SystemResetWarning,0819.2,4.99,000.00,024.6,023.6,000.0,032.9,025.9,10.9,0000.0,0001.21,0001.93,0000.92
2023-12-08 04:27:00,SystemResetWarning,0819.4,5.00,000.00,024.6,023.6,000.0,032.9,025.9,10.9,0000.0,0001.22,0002.42,0000.90
2023-12-08 04:28:00,SystemResetWarning,0819.3,5.00,000.00,024.6,023.6,000.0,032.9,025.9,10.9,0000.0,0001.21,0003.64,0000.89
2023-12-08 04:29:00,SystemResetWarning,0819.2,5.00,000.00,024.6,023.6,000.0,032.9,025.9,10.8,0000.0,0001.19,0003.62,0000.88
2023-12-08 04:30:00,SystemResetWarning,0819.3,5.01,000.00,024.6,023.6,000.0,032.9,025.9,10.8,0000.0,0001.18,0003.60,0000.88
2023-12-08 04:31:00,SystemResetWarning,0819.4,5.01,000.00,024.6,023.6,000.0,032.9,025.9,10.9,0000.0,0001.20,0005.71,0000.88
2023-12-08 04:32:00,SystemResetWarning,0819.3,5.00,000.00,024.6,023.6,000.0,032.9,025.9,10.8,0000.0,0001.18,0006.43,0000.87
2023-12-08 04:33:00,SystemResetWarning,0819.3,5.00,000.00,024.6,023.6,000.0,032.9,025.9,10.8,0000.0,0001.18,0006.43,0000.86
2023-12-08 04:34:00,SystemResetWarning,0819.3,5.00,000.00,024.6,023.5,000.0,032.9,025.9,10.8,0000.0,0001.18,0006.45,0000.86
2023-12-08 04:35:00,SystemResetWarning,0819.2,4.99,000.00,024.6,023.5,000.0,032.9,025.9,10.8,0000.0,0001.16,0006.37,0000.86
2023-12-08 04:36:00,SystemResetWarning,0819.2,4.99,000.00,024.6,023.5,000.0,032.9,025.9,10.8,0000.0,0001.18,0007.68,0000.85
2023-12-08 04:37:00,SystemResetWarning,0819.1,4.99,000.00,024.6,023.5,000.0,032.9,025.9,10.8,0000.0,0001.20,0007.69,0000.85
2023-12-08 04:38:00,SystemResetWarning,0819.0,5.00,000.00,024.6,023.5,000.0,032.9,025.9,10.8,0000.0,0001.19,0007.59,0000.84
2023-12-08 04:39:00,SystemResetWarning,0819.1,5.01,000.00,024.6,023.5,000.0,032.9,025.9,10.8,0000.0,0001.19,0006.35,0000.84
2023-12-08 04:40:00,SystemResetWarning,0819.1,5.00,000.00,024.6,023.5,000.0,032.9,025.9,10.8,0000.0,0001.19,0006.33,0000.83
2023-12-08 04:41:00,SystemResetWarning,0819.2,5.00,000.00,024.6,023.5,000.0,032.9,025.9,10.9,0000.0,0001.23,0006.47,0000.83
2023-12-08 04:42:00,SystemResetWarning,0819.3,4.99,000.00,024.6,023.5,000.0,032.9,025.9,10.8,0000.0,0001.21,0005.09,0000.82
2023-12-08 04:43:00,SystemResetWarning,0819.3,5.00,000.00,024.6,023.5,000.0,032.9,025.9,10.8,0000.0,0001.22,0003.92,0000.82
2023-12-08 04:44:00,SystemResetWarning,0819.4,5.00,000.00,024.6,023.6,000.0,032.9,025.9,10.8,0000.0,0001.24,0003.98,0000.81
2023-12-08 04:45:00,SystemResetWarning,0819.3,5.00,000.00,024.6,023.5,000.0,032.9,025.9,10.8,0000.0,0001.26,0004.08,0000.81
2023-12-08 04:46:00,SystemResetWarning,0819.1,5.01,000.00,024.6,023.5,000.0,032.9,025.9,10.8,0000.0,0001.25,0004.41,0000.79
2023-12-08 04:47:00,SystemResetWarning,0819.1,5.01,000.00,024.5,023.5,000.0,032.9,025.9,10.8,0000.0,0001.21,0004.15,0000.78
2023-12-08 04:48:00,SystemResetWarning,0819.2,5.01,000.00,024.5,023.5,000.0,032.9,025.9,10.7,0000.0,0001.23,0004.86,0000.77
2023-12-08 04:49:00,SystemResetWarning,0819.3,4.99,000.00,024.6,023.5,000.0,032.9,025.9,10.7,0000.0,0001.23,0005.16,0000.77
2023-12-08 04:50:00,SystemResetWarning,0819.2,5.00,000.00,024.5,023.5,000.0,032.9,025.9,10.7,0000.0,0001.20,0005.25,0000.77
2023-12-08 04:51:00,SystemResetWarning,0819.3,4.99,000.00,024.5,023.5,000.0,032.9,025.9,10.7,0000.0,0001.21,0005.25,0000.76
2023-12-08 04:52:00,SystemResetWarning,0819.3,5.00,000.00,024.5,023.6,000.0,032.9,025.9,10.7,0000.0,0001.17,0005.20,0000.75
2023-12-08 04:53:00,SystemResetWarning,0819.4,5.01,000.00,024.6,023.6,000.0,032.9,025.9,10.8,0000.0,0001.15,0004.89,0000.74
2023-12-08 04:54:00,SystemResetWarning,0819.3,5.01,000.00,024.6,023.6,000.0,032.9,026.0,10.8,0000.0,0001.13,0005.51,0000.73
2023-12-08 04:55:00,SystemResetWarning,0819.3,5.00,000.00,024.6,023.6,000.0,032.9,025.9,10.8,0000.0,0001.12,0005.49,0000.73
2023-12-08 04:56:00,SystemResetWarning,0819.3,5.00,000.00,024.6,023.6,000.0,032.9,025.9,10.8,0000.0,0001.09,0005.43,0000.73
2023-12-08 04:57:00,SystemResetWarning,0819.3,4.99,000.00,024.6,023.6,000.0,032.9,025.9,10.8,0000.0,0001.07,0005.45,0000.73
2023-12-08 04:58:00,SystemResetWarning,0819.3,4.99,000.00,024.6,023.5,000.0,032.9,025.9,10.8,0000.0,0001.08,0004.66,0000.74
2023-12-08 04:59:00,SystemResetWarning,0819.4,5.00,000.00,024.5,023.5,000.0,032.9,025.8,10.7,0000.0,0001.00,0003.45,0000.75
